Погода в Карт-Джурте

Россия / Карачаево-Черкесская Республика     43°30′14″N   42°06′47″E
темп.,
°C
ветер,
м/с
пор.,
м/с
влажн.,
%
обл.,
%
осадки,
мм/ч
давл.,
гПа
погр.,
м
18 января, вт
вт1800:00−13ю696141 0.0 1018157
03:00−11ю6964100 0.0 1015192
06:00−11ююз61066100 0.0 1014251
09:00−10ю61073100 0.0 1013295
12:00−6ю577169 0.1 1009484
15:00−7ю597213 0.3 1010907
18:00−10ю578116 0.2 1014212
21:00−11ю578061 0.3 1015111
19 января, ср
ср1900:00−10ю3486100 0.3 1014158
03:00−10ююз2488100 0.7 1015191
06:00−11ююз3583100 0.3 1015169
09:00−11зюз0185100 0.4 1016188
12:00−9юз1480100 0.6 1016738
15:00−10юз1374100 0.9 1016671
18:00−13ююз1293100 0.3 102080
21:00−14ююз2387100 0.4 102184
20 января, чт
чт2000:00
03:00−15ююз3483100 0.0 102198
06:00−15ююз3481100 0.0 102184
09:00
12:00−10ююз135997 0.0 10181318
15:00−11юз1367100 0.1 1019749
18:00−18ююз338958 0.1 102745
21:00−18ююз45842 0.1 102977
21 января, пт
пт2100:00−18ююз56826 0.0 102993
03:00−18ю57791 0.0 1030117
06:00−17ююз577025 0.0 1029105
09:00−12ю46625 0.0 1024101
12:00−5ююз245210 0.0 1017429
15:00−5ююз466688 0.0 1018428
18:00−10ю58690 0.0 1022131
21:00−10ю58670 0.0 1022126
22 января, сб
сб2200:00−9ю696659 0.0 1022163
03:00−8ю6969100 0.0 1020188
06:00−7ю6975100 0.0 1018177
09:00−5ю587698 0.1 1017238
12:00−1ю577597 0.2 1013663
15:00−1ю477498 0.3 1013640
18:00−5ю587898 0.1 1017146
21:00−5ююз587853 0.1 1017130